Погода в Гончаровке

Россия / Приморский край     45°55′42″N   134°24′00″E
темп.,
°C
ветер,
м/с
пор.,
м/с
влажн.,
%
обл.,
%
осадки,
мм/ч
давл.,
гПа
погр.,
м
17 июня, чт
чт1701:00+17ю11970 0.0 100613
04:00+14зюз24975 0.0 1007108
07:00+16вюв1394100 0.0 1007147
10:00+22ю1355100 0.0 1006606
13:00+27ююз3635100 0.0 10041459
16:00+25з5554100 0.0 1003775
19:00+22з4875100 0.0 1003449
22:00+16вюв1195100 0.0 100411
18 июня, пт
пт1801:00+15в1194100 0.0 100311
04:00+15сз1195100 0.0 100216
07:00+15з1188100 0.0 1002107
10:00+20вюв1270100 0.0 1001527
13:00+26ююв1449100 0.0 9991299
16:00+19зюз5982100 0.2 999630
19:00+18зсз3683100 0.1 1000533
22:00+14юз1198100 0.7 100217
19 июня, сб
сб1901:00+14вюв1199100 0.4 100225
04:00+14в1399100 2.4 1002129
07:00+14вюв2797100 0.4 1002309
10:00+12в4991100 0.5 1003279
13:00+12в3898100 1.8 1004250
16:00+12юв31195100 2.7 1003314
19:00+13в3788100 0.1 1003267
22:00+13вюв377855 0.1 1004252
20 июня, вс
вс2001:00+10вюв2587100 0.0 1006130
04:00+10вюв228465 0.0 100652
07:00+12в237394 0.0 1007181
10:00+17вюв3452100 0.0 1007804
13:00+20вюв3344100 0.0 10071211
16:00+21ююв1346100 0.0 10071539
19:00+19з246899 0.0 1007181
22:00+13зюз0087100 0.0 100911
21 июня, пн
пн2101:00+12ю1187100 0.0 101012
04:00+10юв118399 0.0 101011
07:00+12вюв127098 0.0 101298
10:00+18вюв1146100 0.0 1011574
13:00+22с1242100 0.0 10101523
16:00+23зюз123999 0.0 10081895
19:00+20зсз366391 0.0 1008363
22:00+15зсз118277 0.0 100922